Weather History for Houlton, ME

Change the Weather History Date:

Wednesday, February 27, 2013

  Actual Average Record
Temperature  
Mean Temperature 21 °F 19 °F  
Max Temperature 41 °F 30 °F 47 °F (2002)
Min Temperature 1 °F 8 °F -27 °F (1950)
Degree Days  
Heating Degree Days 44 46  
Month to date heating degree days 1273 1351  
Since 1 July heating degree days 6070 6526  
Cooling Degree Days 0 0  
Month to date cooling degree days 0 0  
Year to date cooling degree days 0 0  
Moisture  
Dew Point 11 °F    
Average Humidity 61    
Maximum Humidity 91    
Minimum Humidity 30    
Precipitation  
Precipitation 0.00 in 0.07 in 1.30 in (1979)
Month to date precipitation 0.91 1.92  
Year to date precipitation 2.37 4.78  
Sea Level Pressure  
Sea Level Pressure 30.14 in    
Wind  
Wind Speed 4 mph (East)    
Max Wind Speed 15 mph    
Max Gust Speed 21 mph    
Visibility 10 miles    
Events      
T = Trace of Precipitation, MM = Missing Value Source: NWS Daily Summary

Daily Weather History Graph

Daily Weather History Graph

Search for Another Location

Airport:

Trip Planner

Search our weather history database for the weather conditions in past years. The results will help you decide how hot, cold, wet, or windy it might be!

Date:

Astronomy

Feb. 27, 2013 Rise Set
Actual Time 6:13 AM EST 5:15 PM EST
Civil Twilight 5:43 AM EST 5:45 PM EST
Nautical Twilight 5:08 AM EST 6:19 PM EST
Astronomical Twilight 4:33 AM EST 6:54 PM EST
Moon 7:43 PM EST (2/27) 6:37 AM EST (2/27)
Length of Visible Light 12h 01m
Length of Day
11h 01m
Waning Gibbous, 96% of the Moon is Illuminated
Feb 27
Waning Gibbous
Mar 4
Last Quarter
Mar 11
New
Mar 19
First Quarter
Mar 27
Full

Hourly Weather History & Observations

Time (EST) Temp. Windchill Dew Point Humidity Pressure Visibility Wind Dir Wind Speed Gust Speed Precip Events Conditions
12:53 AM 10.0 °F - 5.0 °F 80% 30.30 in 10.0 mi Calm Calm - N/A   Clear
1:53 AM 7.0 °F - 3.0 °F 84% 30.30 in 10.0 mi Calm Calm - N/A   Clear
2:53 AM 8.1 °F - 3.9 °F 83% 30.27 in 10.0 mi Calm Calm - N/A   Clear
3:53 AM 6.1 °F - 1.0 °F 80% 30.25 in 10.0 mi Calm Calm - N/A   Clear
4:53 AM 3.2 °F - -0.4 °F 85% 30.23 in 10.0 mi Calm Calm - N/A   Clear
5:53 AM 1.9 °F - -4.0 °F 76% 30.27 in 10.0 mi Calm Calm - N/A   Clear
6:53 AM 1.0 °F - -4.0 °F 79% 30.28 in 10.0 mi Calm Calm - N/A   Clear
7:53 AM 9.0 °F - 6.1 °F 88% 30.27 in 9.0 mi Calm Calm - N/A   Clear
8:53 AM 18.0 °F - 12.0 °F 78% 30.25 in 10.0 mi Calm Calm - N/A   Clear
9:53 AM 24.8 °F 20.5 °F 15.8 °F 69% 30.18 in 10.0 mi NNE 3.5 mph - N/A   Clear
10:53 AM 36.0 °F 31.1 °F 18.0 °F 48% 30.18 in 10.0 mi East 5.8 mph - N/A   Clear
11:53 AM 39.0 °F 33.4 °F 15.1 °F 38% 30.15 in 10.0 mi ESE 8.1 mph - N/A   Clear
12:53 PM 39.9 °F 33.9 °F 15.1 °F 36% 30.12 in 10.0 mi ESE 9.2 mph - N/A   Clear
1:53 PM 39.9 °F 32.9 °F 14.0 °F 35% 30.09 in 10.0 mi East 11.5 mph 19.6 mph N/A   Clear
2:53 PM 41.0 °F 35.8 °F 12.9 °F 32% 30.08 in 10.0 mi ESE 8.1 mph 17.3 mph N/A   Clear
3:53 PM 39.0 °F 35.7 °F 12.9 °F 34% 30.06 in 10.0 mi ESE 4.6 mph - N/A   Clear
4:53 PM 37.9 °F 34.4 °F 14.0 °F 38% 30.05 in 10.0 mi ESE 4.6 mph - N/A   Clear
5:53 PM 35.1 °F - 14.0 °F 42% 30.05 in 10.0 mi Calm Calm - N/A   Clear
6:53 PM 34.0 °F 31.0 °F 15.1 °F 46% 30.03 in 10.0 mi ENE 3.5 mph - N/A   Clear
7:53 PM 34.0 °F 28.0 °F 16.0 °F 48% 30.02 in 10.0 mi East 6.9 mph - N/A   Clear
8:53 PM 34.0 °F 27.2 °F 18.0 °F 52% 30.01 in 10.0 mi East 8.1 mph - N/A   Mostly Cloudy
9:53 PM 33.1 °F 26.9 °F 18.0 °F 54% 29.98 in 10.0 mi East 6.9 mph - N/A   Scattered Clouds
10:53 PM 32.0 °F 24.2 °F 17.1 °F 54% 29.95 in 10.0 mi East 9.2 mph - N/A   Overcast
11:53 PM 32.0 °F 24.2 °F 16.0 °F 52% 29.92 in 10.0 mi East 9.2 mph - N/A   Overcast